Date String (YYYY-MM-DD hh:mm:ss) UTC,Instrument flags,Ambient pressure (hPa),Sample flow (lpm),Bypass flow (lpm),Sample temperature (°C),Ambient temperature (°C),ASC tube jacket temperature (°C),LED temperature (°C),Box temperature (°C),Sample RH (%),Span deviation,Mass concentration (μg/m³),Mass concentration (μg/m³),Mass concentration (μg/m³)
DateTimeUTC,F1_M11,P_M11,Q1_M11,Q2_M11,T1_M11,T2_M11,T3_M11,T4_M11,T5_M11,U1_M11,ZSPAN_M11,X2_M11,X0_M11,X1_M11
2022-05-09 15:00:00,,0811.7,4.99,0.00,26.8,26.2,00.0,35.5,28.7,23.6,0000.0,0007.27,0013.05,0005.61
2022-05-09 15:01:00,,0811.8,4.99,0.00,26.8,26.2,00.0,35.6,28.7,23.3,0000.0,0007.33,0013.33,0005.61
2022-05-09 15:02:00,,0811.8,5.00,0.00,26.8,26.2,00.0,35.6,28.7,23.2,0000.0,0007.41,0013.40,0005.61
2022-05-09 15:03:00,,0811.6,5.00,0.00,26.8,26.2,00.0,35.6,28.7,23.0,0000.0,0007.42,0013.25,0005.61
2022-05-09 15:04:00,,0811.7,5.01,0.00,26.9,26.2,00.0,35.6,28.8,23.0,0000.0,0007.38,0013.14,0005.60
2022-05-09 15:05:00,,0811.7,5.01,0.00,26.9,26.2,00.0,35.6,28.8,23.2,0000.0,0007.28,0012.89,0005.58
2022-05-09 15:06:00,,0811.7,5.00,0.00,26.9,26.3,00.0,35.7,28.8,22.8,0000.0,0007.28,0012.86,0005.58
2022-05-09 15:07:00,,0811.7,5.00,0.00,26.9,26.3,00.0,35.7,28.8,22.9,0000.0,0007.23,0013.02,0005.59
2022-05-09 15:08:00,,0811.7,5.00,0.00,26.9,26.3,00.0,35.7,28.8,22.9,0000.0,0007.17,0013.01,0005.57
2022-05-09 15:09:00,,0811.6,4.99,0.00,27.0,26.4,00.0,35.7,28.9,22.9,0000.0,0007.23,0013.25,0005.57
2022-05-09 15:10:00,,0811.7,5.01,0.00,27.0,26.4,00.0,35.8,28.9,23.1,0000.0,0007.26,0013.30,0005.57
2022-05-09 15:11:00,,0811.6,5.00,0.00,27.0,26.4,00.0,35.8,28.9,23.0,0000.0,0007.27,0013.05,0005.58
2022-05-09 15:12:00,,0811.7,5.00,0.00,27.0,26.4,00.0,35.8,29.0,23.4,0000.0,0007.22,0013.02,0005.57
2022-05-09 15:13:00,,0811.7,4.99,0.00,27.1,26.4,00.0,35.8,29.0,23.6,0000.0,0007.04,0012.49,0005.54
2022-05-09 15:14:00,,0811.8,5.00,0.00,27.1,26.4,00.0,35.8,29.0,23.3,0000.0,0006.98,0012.37,0005.52
2022-05-09 15:15:00,,0811.9,5.00,0.00,27.1,26.5,00.0,35.9,29.0,23.4,0000.0,0006.97,0012.53,0005.51
2022-05-09 15:16:00,,0811.9,5.01,0.00,27.1,26.5,00.0,35.9,29.0,22.9,0000.0,0007.01,0012.83,0005.51
2022-05-09 15:17:00,,0811.9,5.00,0.00,27.1,26.4,00.0,35.9,29.0,23.0,0000.0,0007.03,0012.87,0005.51
2022-05-09 15:18:00,,0811.9,5.01,0.00,27.1,26.4,00.0,35.9,29.0,22.7,0000.0,0007.01,0012.65,0005.48
2022-05-09 15:19:00,,0811.9,4.99,0.00,27.1,26.4,00.0,35.9,29.0,22.7,0000.0,0007.04,0012.60,0005.49
2022-05-09 15:20:00,,0811.9,5.01,0.00,27.1,26.4,00.0,35.9,29.0,22.7,0000.0,0007.04,0012.54,0005.50
2022-05-09 15:21:00,,0811.9,5.00,0.00,27.1,26.4,00.0,36.0,29.0,22.7,0000.0,0007.06,0012.95,0005.52
2022-05-09 15:22:00,,0811.7,4.99,0.00,27.1,26.4,00.0,36.0,29.0,22.7,0000.0,0007.05,0012.85,0005.52
2022-05-09 15:23:00,,0811.7,5.00,0.00,27.1,26.4,00.0,36.0,29.0,22.6,0000.0,0007.03,0013.27,0005.52
2022-05-09 15:24:00,,0811.7,5.00,0.00,27.1,26.5,00.0,36.0,29.0,22.8,0000.0,0007.05,0014.15,0005.53
2022-05-09 15:25:00,,0811.7,5.00,0.00,27.1,26.5,00.0,36.0,29.0,22.6,0000.0,0007.06,0014.10,0005.54
2022-05-09 15:26:00,,0811.7,5.00,0.00,27.1,26.4,00.0,36.0,29.0,22.8,0000.0,0007.08,0014.24,0005.56
2022-05-09 15:27:00,,0811.7,4.99,0.00,27.1,26.4,00.0,36.0,29.0,22.6,0000.0,0007.11,0014.35,0005.57
2022-05-09 15:28:00,,0811.6,5.00,0.00,27.1,26.4,00.0,36.0,29.0,22.7,0000.0,0007.11,0014.37,0005.56
2022-05-09 15:29:00,,0811.6,5.00,0.00,27.1,26.4,00.0,36.0,29.0,23.0,0000.0,0007.16,0014.40,0005.57
2022-05-09 15:30:00,,0811.6,4.99,0.00,27.1,26.4,00.0,36.0,29.0,22.8,0000.0,0007.21,0014.85,0005.58
2022-05-09 15:31:00,,0811.7,5.01,0.00,27.1,26.4,00.0,36.0,29.0,23.3,0000.0,0007.17,0014.89,0005.57
2022-05-09 15:32:00,,0811.7,5.00,0.00,27.2,26.5,00.0,36.0,29.1,22.9,0000.0,0007.16,0014.46,0005.56
2022-05-09 15:33:00,,0811.7,5.00,0.00,27.2,26.5,00.0,36.1,29.1,22.9,0000.0,0007.23,0014.57,0005.58
2022-05-09 15:34:00,,0811.7,4.99,0.00,27.2,26.5,00.0,36.1,29.1,23.4,0000.0,0007.35,0014.34,0005.60
2022-05-09 15:35:00,,0811.7,4.99,0.00,27.2,26.5,00.0,36.1,29.1,22.8,0000.0,0007.45,0013.80,0005.61
2022-05-09 15:36:00,,0811.8,5.01,0.00,27.2,26.6,00.0,36.1,29.1,22.5,0000.0,0007.49,0013.81,0005.62
2022-05-09 15:37:00,,0811.7,5.00,0.00,27.2,26.5,00.0,36.1,29.1,22.1,0000.0,0007.56,0013.91,0005.61
2022-05-09 15:38:00,,0811.7,5.00,0.00,27.2,26.5,00.0,36.1,29.1,22.0,0000.0,0007.58,0014.45,0005.61
2022-05-09 15:39:00,,0811.8,4.99,0.00,27.2,26.5,00.0,36.1,29.1,22.7,0000.0,0007.58,0015.32,0005.61
2022-05-09 15:40:00,,0811.7,5.00,0.00,27.2,26.5,00.0,36.1,29.1,22.6,0000.0,0007.58,0015.56,0005.62
2022-05-09 15:41:00,,0811.8,5.00,0.00,27.2,26.5,00.0,36.1,29.0,23.1,0000.0,0007.56,0015.19,0005.64
2022-05-09 15:42:00,,0811.9,4.99,0.00,27.2,26.6,00.0,36.1,29.0,22.9,0000.0,0007.58,0015.35,0005.65
2022-05-09 15:43:00,,0811.9,5.00,0.00,27.2,26.5,00.0,36.1,29.0,22.5,0000.0,0007.54,0015.85,0005.65
2022-05-09 15:44:00,,0811.9,5.01,0.00,27.2,26.5,00.0,36.1,29.0,22.7,0000.0,0007.47,0015.71,0005.64
2022-05-09 15:45:00,,0811.8,4.99,0.00,27.2,26.5,00.0,36.1,29.1,22.6,0000.0,0007.36,0015.44,0005.65
2022-05-09 15:46:00,,0811.8,4.98,0.00,27.2,26.5,00.0,36.1,29.1,22.4,0000.0,0007.30,0015.22,0005.65
2022-05-09 15:47:00,,0811.9,5.01,0.00,27.2,26.5,00.0,36.1,29.0,22.8,0000.0,0007.34,0015.42,0005.64
2022-05-09 15:48:00,,0811.9,5.00,0.00,27.2,26.5,00.0,36.1,29.0,22.6,0000.0,0007.32,0015.77,0005.65
2022-05-09 15:49:00,,0811.9,5.00,0.00,27.2,26.5,00.0,36.1,29.0,22.4,0000.0,0007.29,0015.34,0005.65
2022-05-09 15:50:00,,0811.9,5.00,0.00,27.2,26.5,00.0,36.1,29.0,22.3,0000.0,0007.31,0014.68,0005.66
2022-05-09 15:51:00,,0811.9,4.99,0.00,27.2,26.5,00.0,36.1,29.0,22.5,0000.0,0007.32,0014.41,0005.64
2022-05-09 15:52:00,,0811.9,5.00,0.00,27.2,26.5,00.0,36.1,29.0,22.3,0000.0,0007.37,0014.60,0005.62
2022-05-09 15:53:00,,0811.9,5.00,0.00,27.2,26.5,00.0,36.1,29.0,22.3,0000.0,0007.39,0014.90,0005.61
2022-05-09 15:54:00,,0811.9,5.00,0.00,27.2,26.5,00.0,36.1,29.0,22.9,0000.0,0007.41,0014.51,0005.61
2022-05-09 15:55:00,,0811.9,5.00,0.00,27.2,26.5,00.0,36.1,29.0,23.3,0000.0,0007.51,0015.40,0005.60
2022-05-09 15:56:00,,0811.9,4.99,0.00,27.2,26.5,00.0,36.1,29.0,23.5,0000.0,0007.60,0016.81,0005.58
2022-05-09 15:57:00,,0811.9,5.00,0.00,27.2,26.5,00.0,36.1,29.0,22.6,0000.0,0007.63,0017.42,0005.59
2022-05-09 15:58:00,,0811.9,4.99,0.00,27.2,26.5,00.0,36.1,29.0,22.3,0000.0,0007.61,0017.29,0005.61
2022-05-09 15:59:00,,0811.9,5.00,0.00,27.1,26.5,00.0,36.1,29.0,23.2,0000.0,0007.57,0016.49,0005.61
